User: anonymous   Login
Location: Unspecified
(0.0000°N, 0.0000°E)
Time: 21:50:38
(UTC+00:00)
Language:

STARLINK-4509 - Orbit

View from above orbital plane
View from above orbital plane
View from above satellite
View from above satellite

Ground track
Ground track

The orbit is defined by the following mean orbital elements,

1 53404U          26145.35401271 +.00000000 +00000-0 +52576-4 0 00009
2 53404  53.2130 129.8935 0001076  79.6596 280.4518 15.08843760    05
Epoch (UTC): 25 May 2026 08:29:46
Eccentricity: 0.0001076
inclination: 53.2130°
perigee height: 539 km
apogee height: 540 km
right ascension of ascending node: 129.8935°
argument of perigee: 79.6596°
revolutions per day: 15.08843760
mean anomaly at epoch: 280.4518°

The dashed part of the orbit path shows where the satellite is in the earth's shadow,  

DLR